DELTA 1 DEB, 40766

Orbit data source: Space-Track

DELTA 1 DEB, 40766 is space debris in SSO originally from a launch on Thu, 29 Jul 1976 UTC launched from the Air Force Western Test Range (AFWTR). Debris objects in space refer to the collection of defunct objects orbiting the Earth. Examples of debris include non-operational satellites, rocket bodies, and fragments generated from explosions, collisions, or faulty payload assembly.

Loading next visibility...
Identifier
40766, 1976-077GK
Orbit
SSO
Last TLE update
3 days ago
Origin
Manufacturer
Unknown
Mission
Spacecraft
Bus & Motor
Unknown
Mass
Unknown
Launch date (UTC)
1976-07-29 (49 years ago)
Launch vehicle
Unknown
Launch site
Air Force Western Test Range (AFWTR)
Object type
Payload
Rocket body
Debris
Shape & HBR
Unknown
Radar Cross Section
Small (<0.1 m²)

Expand to show TLE details & history

TLE from 3 days ago
0 DELTA 1 DEB
1 40766U 76077GK  25127.20445853 -.00000006  00000-0  34468-3 0  9993
2 40766 102.1642  35.9576 0101349 213.6467 311.8643 12.23223262 71316
Epoch: 2025-05-07T04:54Z
Definitive object data (Epoch: 2025-05-07T04:54:25.216Z)
Latitude
14.98794°
Longitude
-79.64799°
Altitude
1,526.999 km
Speed
7.127 km/s
True Right ascension
14h 36m 59s
True Declination
14° 54' 38"
Sunlit
Object was in full shadow at TLE epoch
Visualization TLE readout
Latitude
-24.27574°
Longitude
105.1015°
Altitude
1,634.457 km
Speed
7.033 km/s
Apparent Right ascension
03h 05m 23s
Apparent Declination
-71° 49' 54"
Sunlit
Object is in daylight
Visualization observer readout
Local Sidereal Time
02:51:22
Azimuth
178.824° S
Elevation
-21.775°
Doppler factor
1
Orbital elements
Apogee altitude
1,656.755 km
Perigee altitude
1,495.523 km
Semi-major axis
7,954.276 km
Eccentricity
0.0101349
Inclination
102.1642°
RAAN
35.9576°
Arg. of periapsis
213.6467°
True anomaly
310.99205°
Mean anomaly
311.8643°
Eccentric anomaly
311.42891°
Mean motion
3.05944 °/min
BSTAR
0.00034468
Orbital period
117.67 mins
Loading maneuver chart data...
Loading SW <> Apogee altitude chart data...
Loading historical data...
Loading historical data...
Loading historical data...
Loading historical data...
Loading historical data...
Loading historical data...
Loading historical data...

DELTA 1 DEB Visibility forecast

Observer location: undefined°, undefined°

Span
Click to sort rows by Start time (UTC) header in descending order
Start Az.
Max El. time (UTC)
Max El. Az.
Max El.
End time (UTC)
End Az.
15 mins2025-05-09 18:53:31.730Z203.045° SW2025-05-09 19:01:31.730Z266.509° W28.827°2025-05-09 19:08:31.730Z321.387° NNW
11 mins2025-05-10 05:19:31.730Z50.917° ENE2025-05-10 05:24:31.730Z90.999° ESE21.774°2025-05-10 05:30:31.730Z139.366° SSE
16 mins2025-05-10 07:13:31.730Z13.536° NNE2025-05-10 07:20:31.730Z316.55° NNW43.757°2025-05-10 07:29:31.730Z209.03° SW
9 mins2025-05-10 09:10:31.730Z345.09° N2025-05-10 09:14:31.730Z315.778° NNW17.257°2025-05-10 09:19:31.730Z278.421° WNW
15 mins2025-05-10 16:32:31.730Z123.408° SE2025-05-10 16:39:31.730Z60.213° ENE34.92°2025-05-10 16:47:31.730Z354.606° N
13 mins2025-05-10 18:27:31.730Z191.308° SSW2025-05-10 18:34:31.730Z255.092° W36.439°2025-05-10 18:40:31.730Z320.935° NNW
|